Content
SEND FEEDBACK

Daily
Averages
Monthly
Summary
United States of America

MALDEN, MISSOURI


Home > North America > United States > Missouri
Elevation: 295 feet     Latitude: 36 36N     Longitude: 089 59W

WEATHER
 
SELECT A DAY
Number of Records: 211,124;   Date Range: 1/1/95 - 10/29/14
 
SHARE

PRINT THIS DATA

[ ← Previous Day ]
WEATHER ALMANAC - JANUARY 2, 2014
[ Next Day → ]
[ °C ]   °F
Weather ElementAverageHighLow
Temperature28.9 °F41 °F (1:53 am)19.9 °F (11:53 pm)
Dewpoint17.6 °F35.1 °F (1:53 am)8.1 °F (9:53 pm)
Humidity63.3 %79 % (1:53 am)45 % (2:53 pm)
Barometer30.21 in30.51 in (11:53 pm)29.95 in (2:01 am)
Wind Speed15.8 mph24.2 mph (4:13 am)
Wind Gust31.1 mph (4:13 am)
Weather ElementAverage
Visibility8.3 mi
Wind DirectionNNW (327 °)

Weather ElementTotal
Precipitation0.01 in
Heating Degree Days34.6 (Base 65)
Averaged from 33 records on January 2, 2014
WEATHER CONDITIONS BREAKOUT
WIND DIRECTION BREAKOUT
WEATHER BY HOUR - JANUARY 2, 2014
[ °C ]   °F
Local TimeTemperatureDewpointHumidityBarometerVisibilityWind DirectionWind SpeedGust SpeedPrecipitationEventsConditions
1:53 AM41.0 °F35.1 °F79 %29.96 in10.0 miNorth (360°)12.7 mphOvercast
2:01 AM41.0 °F35.1 °F79 %29.95 in10.0 miNorth (360°)12.7 mphOvercast
2:53 AM36.0 °F28.9 °F76 %30.00 in6.0 miNorth (350°)17.3 mph0.00 inSnowLight Snow
3:33 AM33.1 °F27.0 °F78 %30.01 in2.5 miNNW (330°)13.8 mph0.00 inSnowLight Snow
3:46 AM33.1 °F26.1 °F75 %30.01 in3.0 miNNW (340°)13.8 mph24.2 mph0.00 inSnowLight Snow
3:53 AM33.1 °F26.1 °F75 %30.03 in5.0 miNNW (330°)13.8 mph20.7 mph0.01 inSnowLight Snow
4:01 AM32.0 °F25.0 °F75 %30.02 in2.0 miNNW (330°)19.6 mph0.00 inSnowLight Snow
4:13 AM32.0 °F24.1 °F73 %30.01 in3.0 miNNW (330°)24.2 mph31.1 mph0.00 inSnowLight Snow
4:31 AM30.9 °F23.0 °F72 %30.02 in8.0 miNNW (340°)18.4 mph26.5 mph0.00 inSnowLight Snow
4:42 AM30.9 °F24.1 °F76 %30.02 in3.0 miNNW (340°)13.8 mph0.00 inSnowLight Snow
4:53 AM30.0 °F23.0 °F75 %30.04 in5.0 miNNW (330°)20.7 mph26.5 mph0.00 inSnowLight Snow
5:46 AM27.0 °F18.0 °F69 %30.08 in10.0 miNNW (340°)17.3 mph29.9 mph0.00 inOvercast
5:53 AM27.0 °F18.0 °F69 %30.11 in5.0 miNNW (340°)17.3 mph25.3 mph0.00 inSnowLight Snow
6:53 AM26.1 °F16.0 °F66 %30.14 in10.0 miNNW (330°)13.8 mph26.5 mph0.00 inMostly Cloudy
7:53 AM25.0 °F14.0 °F63 %30.19 in10.0 miNW (320°)19.6 mphClear
8:53 AM26.1 °F14.0 °F60 %30.23 in10.0 miNNW (330°)13.8 mph24.2 mphClear
9:53 AM27.0 °F15.1 °F61 %30.27 in10.0 miNW (320°)20.7 mph24.2 mphMostly Cloudy
10:53 AM26.1 °F15.1 °F63 %30.28 in10.0 miNW (320°)17.3 mph24.2 mphMostly Cloudy
11:11 AM28.0 °F15.1 °F58 %30.26 in10.0 miNW (320°)17.3 mph23.0 mphScattered Clouds
11:21 AM28.0 °F15.1 °F58 %30.26 in10.0 miNW (320°)21.9 mphMostly Cloudy
11:53 AM28.0 °F15.1 °F58 %30.27 in10.0 miNorth (350°)18.4 mph26.5 mphScattered Clouds
12:53 PM30.0 °F14.0 °F51 %30.27 in10.0 miNNW (340°)15.0 mph24.2 mphPartly Cloudy
1:53 PM32.0 °F14.0 °F48 %30.27 in10.0 miNNW (330°)12.7 mph24.2 mphPartly Cloudy
2:53 PM30.0 °F10.9 °F45 %30.30 in10.0 miNNW (330°)19.6 mph31.1 mphPartly Cloudy
3:53 PM30.0 °F10.9 °F45 %30.33 in10.0 miNNW (330°)19.6 mph27.6 mphClear
4:53 PM28.0 °F9.0 °F45 %30.37 in10.0 miNW (310°)17.3 mphPartly Cloudy
5:53 PM27.0 °F10.9 °F51 %30.40 in10.0 miNorth (350°)16.1 mphOvercast
6:53 PM25.0 °F10.9 °F55 %30.43 in10.0 miNorth (10°)13.8 mphClear
7:53 PM24.1 °F10.0 °F55 %30.45 in10.0 miNorth (350°)10.4 mphClear
8:53 PM23.0 °F10.0 °F58 %30.47 in10.0 miNorth (350°)10.4 mphClear
9:53 PM21.9 °F8.1 °F55 %30.48 in10.0 miNorth (350°)11.5 mphClear
10:53 PM21.0 °F9.0 °F60 %30.49 in10.0 miNorth (350°)8.1 mphClear
11:53 PM19.9 °F9.0 °F62 %30.51 in10.0 miNorth (360°)9.2 mphClear
Hourly data recorded from KPOF, located miles away from Malden, Missouri







STORIES FROM OUR PARTNERS